Location: Peebles
(55.6412°N, 3.1714°W)
Time: 09:08:24
(UTC+01:00)

APEX - Pass Details

Date: 26 September 2021
Orbit: 330 x 1061 km, 69.9° (Epoch: 20 October)

Event Time Altitude Azimuth Distance (km) Brightness Sun altitude
Rises 20:23:15 0° 323° (NW) 3,340 8.2 -12.4°
Reaches altitude 10° 20:25:57 10° 321° (NW) 2,278 7.3 -12.7°
Maximum altitude 20:31:03 71° 239° (WSW) 671 3.8 -13.4°
Enters shadow 20:34:43 12° 156° (SSE) 1,667 5.4 -13.9°
